Location: ??????????
(54.7560°N, 39.1389°E)
Time: 13:55:11
(UTC+00:00)

SL-14 R/B - Pass Details

Date: 19 May 2025
Orbit: 500 x 530 km, 82.4° (Epoch: 20 June)

Event Time Altitude Azimuth Distance (km) Brightness Sun altitude
Exits shadow 22:18:56 26° 192° (SSW) 1,052 4.1 -14.2°
Maximum altitude 22:21:02 88° 282° (WNW) 529 3.2 -14.1°
Drops below altitude 10° 22:24:57 10° 11° (NNE) 1,777 7.4 -14.0°
Sets 22:27:07 0° 12° (NNE) 2,676 8.8 -13.9°
